Location: Schommer Observatory
(40.5200°N, 74.4500°W)
Time: 04:25:20
(UTC-04:00)

ISS - Pass Details

Date: 23 May 2018
Orbit: 402 x 407 km, 51.6° (Epoch: 23 May)

Event Time Altitude Azimuth Distance (km) Brightness Sun altitude
Rises 04:01:41 0° 301° (WNW) 2,317 -0.1 -15.0°
Reaches altitude 10° 04:03:49 10° 294° (WNW) 1,455 -1.2 -14.7°
Maximum altitude 04:06:56 42° 222° (SW) 586 -3.5 -14.3°
Drops below altitude 10° 04:10:01 10° 150° (SSE) 1,447 -1.2 -13.9°
Sets 04:12:08 0° 143° (SE) 2,302 -0.1 -13.6°
